Weather History for Clarksville, TN

Change the Weather History Date:

Thursday, July 11, 2013

  Actual Average Record
Temperature  
Mean Temperature 77 °F -  
Max Temperature 88 °F - 98 °F (1966)
Min Temperature 66 °F - 53 °F (1963)
Degree Days  
Heating Degree Days 0    
Month to date heating degree days 0  
Since 1 July heating degree days 0  
Cooling Degree Days 12    
Month to date cooling degree days 104  
Growing Degree Days 27 (Base 50)    
Moisture  
Dew Point 69 °F    
Average Humidity 77    
Maximum Humidity 100    
Minimum Humidity 54    
Precipitation  
Precipitation 0.00 in - 1.25 in (1951)
Month to date precipitation 2.67  
Sea Level Pressure  
Sea Level Pressure 29.95 in    
Wind  
Wind Speed 6 mph (NNE)    
Max Wind Speed 15 mph    
Max Gust Speed 21 mph    
Visibility 6 miles    
Events Fog    
T = Trace of Precipitation, MM = Missing Value Source: NWS Daily Summary

Daily Weather History Graph

Daily Weather History Graph

Search for Another Location

Airport:

Trip Planner

Search our weather history database for the weather conditions in past years. The results will help you decide how hot, cold, wet, or windy it might be!

Date:

Astronomy

Jul. 11, 2013 Rise Set
Actual Time 5:40 AM CDT 8:09 PM CDT
Civil Twilight 5:10 AM CDT 8:39 PM CDT
Nautical Twilight 4:33 AM CDT 9:16 PM CDT
Astronomical Twilight 3:52 AM CDT 9:57 PM CDT
Moon 8:52 AM CDT (7/11) 9:57 PM CDT (7/11)
Length of Visible Light 15h 29m
Length of Day
14h 29m
Waxing Crescent, 11% of the Moon is Illuminated
Jul 11
Waxing Crescent
Jul 15
First Quarter
Jul 22
Full
Jul 29
Last Quarter
Aug 6
New

Hourly Weather History & Observations

Time (CDT) Temp. Heat Index Dew Point Humidity Pressure Visibility Wind Dir Wind Speed Gust Speed Precip Events Conditions
12:52 AM 72.0 °F - 70.0 °F 93% 29.94 in 8.0 mi Calm Calm - N/A   Clear
1:52 AM 71.1 °F - 70.0 °F 96% 29.94 in 6.0 mi Calm Calm - N/A   Clear
2:52 AM 72.0 °F - 70.0 °F 93% 29.93 in 3.0 mi Calm Calm - N/A   Clear
2:58 AM 71.6 °F - 69.8 °F 94% 29.95 in 1.8 mi SE 3.5 mph - N/A   Clear
3:00 AM 71.6 °F - 69.8 °F 94% 29.95 in 1.0 mi SE 3.5 mph - N/A   Mist
3:08 AM 71.6 °F - 69.8 °F 94% 29.95 in 0.5 mi Calm Calm - N/A Fog Fog
3:31 AM 71.6 °F - 69.8 °F 94% 29.94 in 1.2 mi Calm Calm - N/A   Scattered Clouds
3:33 AM 71.6 °F - 69.8 °F 94% 29.94 in 4.0 mi Calm Calm - N/A   Scattered Clouds
3:52 AM 71.1 °F - 69.1 °F 93% 29.93 in 3.0 mi Calm Calm - N/A   Clear
3:58 AM 69.8 °F - 69.8 °F 100% 29.95 in 1.8 mi Calm Calm - N/A   Clear
4:07 AM 69.8 °F - 69.8 °F 100% 29.95 in 0.5 mi Calm Calm - N/A Fog Fog
4:17 AM 69.8 °F - 69.8 °F 100% 29.95 in 1.0 mi Calm Calm - N/A   Mist
4:25 AM 69.8 °F - 69.8 °F 100% 29.95 in 0.5 mi Calm Calm - N/A Fog Fog
4:52 AM 70.0 °F - 69.1 °F 97% 29.94 in 0.2 mi Calm Calm - N/A Fog Fog
5:35 AM 69.8 °F - 69.8 °F 100% 29.96 in 1.8 mi Calm Calm - N/A   Overcast
5:52 AM 70.0 °F - 69.1 °F 97% 29.95 in 0.5 mi Calm Calm - N/A Fog Fog
6:52 AM 71.1 °F - 71.1 °F 100% 29.95 in 0.2 mi Calm Calm - N/A Fog Fog
7:46 AM 73.4 °F - 71.6 °F 94% 29.97 in 2.5 mi Calm Calm - N/A   Mostly Cloudy
7:49 AM 73.4 °F - 73.4 °F 100% 29.97 in 5.0 mi Calm Calm - N/A   Scattered Clouds
7:52 AM 73.9 °F - 73.0 °F 97% 29.96 in 6.0 mi Calm Calm - N/A   Scattered Clouds
8:52 AM 81.0 °F 85.8 °F 73.0 °F 77% 29.96 in 10.0 mi Calm Calm - N/A   Clear
9:52 AM 82.9 °F 88.8 °F 73.0 °F 72% 29.95 in 10.0 mi Variable 3.5 mph - N/A   Mostly Cloudy
10:08 AM 84.2 °F 90.9 °F 73.4 °F 70% 29.97 in 10.0 mi ENE 5.8 mph - N/A   Mostly Cloudy
10:52 AM 86.0 °F 93.0 °F 73.0 °F 65% 29.95 in 10.0 mi NE 4.6 mph - N/A   Mostly Cloudy
11:23 AM 82.4 °F 88.2 °F 73.4 °F 74% 29.97 in 10.0 mi North 5.8 mph - N/A   Mostly Cloudy
11:30 AM 84.2 °F 92.3 °F 75.2 °F 74% 29.97 in 10.0 mi North 9.2 mph - N/A   Mostly Cloudy
11:52 AM 86.0 °F 95.1 °F 75.0 °F 70% 29.95 in 10.0 mi North 8.1 mph - N/A   Partly Cloudy
12:52 PM 86.0 °F 93.8 °F 73.9 °F 67% 29.94 in 10.0 mi North 11.5 mph - N/A   Scattered Clouds
1:52 PM 84.9 °F 91.4 °F 73.0 °F 67% 29.94 in 8.0 mi North 12.7 mph 18.4 mph N/A   Mostly Cloudy
2:52 PM 86.0 °F 91.5 °F 71.1 °F 61% 29.93 in 10.0 mi North 11.5 mph 18.4 mph N/A   Mostly Cloudy
3:52 PM 84.9 °F 88.2 °F 68.0 °F 57% 29.94 in 10.0 mi NNE 12.7 mph 19.6 mph N/A   Partly Cloudy
4:52 PM 84.0 °F 86.5 °F 66.9 °F 56% 29.95 in 10.0 mi North 11.5 mph - N/A   Partly Cloudy
5:52 PM 82.9 °F 85.0 °F 66.0 °F 56% 29.94 in 10.0 mi North 10.4 mph 17.3 mph N/A   Clear
6:52 PM 81.0 °F 82.2 °F 63.0 °F 54% 29.94 in 10.0 mi North 10.4 mph - N/A   Clear
7:52 PM 77.0 °F - 59.0 °F 54% 29.95 in 10.0 mi North 8.1 mph - N/A   Clear
8:52 PM 72.0 °F - 60.1 °F 66% 29.95 in 10.0 mi North 6.9 mph - N/A   Clear
9:52 PM 69.1 °F - 60.1 °F 73% 29.97 in 10.0 mi North 6.9 mph - N/A   Clear
10:52 PM 68.0 °F - 61.0 °F 78% 29.98 in 10.0 mi North 6.9 mph - N/A   Clear
11:52 PM 66.9 °F - 60.1 °F 79% 29.99 in 10.0 mi North 6.9 mph - N/A   Clear